Location: Gleizolles
(44.4833°N, 6.7667°E)
Time: 03:43:38
(UTC+00:00)

N. Korean satellite - Pass Details

Date: 13 December 2021
Orbit: 447 x 491 km, 97.3° (Epoch: 23 January)

Event Time Altitude Azimuth Distance (km) Brightness Sun altitude
Rises 05:12:44 0° 6° (N) 2,460 10.1 -18.5°
Enters shadow 05:13:44 - 4° (N) 2,039 9.6 -18.3°
Exits shadow 05:19:42 25° 227° (SW) 959 7.8 -17.3°
Drops below altitude 10° 05:21:19 10° 213° (SSW) 1,582 9.0 -17.0°
Sets 05:23:24 0° 207° (SSW) 2,455 10.0 -16.6°
